Change the Weather History Date:

Sunday, June 9, 2013

  Actual Average Record
Temperature  
Mean Temperature 66 °F -  
Max Temperature 70 °F 77 °F 96 °F (2006)
Min Temperature 61 °F 59 °F 46 °F (2007)
Growing Degree Days 16 (Base 50)    
Moisture  
Dew Point 61 °F    
Average Humidity 91    
Maximum Humidity 100    
Minimum Humidity 69    
Precipitation  
Precipitation 0.18 in - - ()
Sea Level Pressure  
Sea Level Pressure 29.77 in    
Wind  
Wind Speed 8 mph (West)    
Max Wind Speed 17 mph    
Max Gust Speed 24 mph    
Visibility 10 miles    
Events Rain    
Averages and records for this station are not official NWS values.
T = Trace of Precipitation, MM = Missing Value Source: NWS Daily Summary

Daily Weather History Graph

Daily Weather History Graph

Search for Another Location

Airport or City:

Trip Planner

Search our weather history database for the weather conditions in past years. The results will help you decide how hot, cold, wet, or windy it might be!

Date:

Astronomy

Jun. 09, 2013 Rise Set
Actual Time 5:50 AM CDT 8:55 PM CDT
Civil Twilight 5:17 AM CDT 9:28 PM CDT
Nautical Twilight 4:34 AM CDT 10:11 PM CDT
Astronomical Twilight 3:44 AM CDT 11:02 PM CDT
Moon 6:48 AM CDT (6/9) 9:42 PM CDT (6/9)
Length of Visible Light 16h 11m
Length of Day
15h 04m
New Moon, 1% of the Moon is Illuminated
Jun 9
New Moon
Jun 16
First Quarter
Jun 23
Full
Jun 29
Last Quarter
Jul 8
New

Hourly Weather History & Observations

Time (CDT) Temp. Dew Point Humidity Pressure Visibility Wind Dir Wind Speed Gust Speed Precip Events Conditions
12:58 AM 62.4 °F 62.1 °F 99% 29.75 in 10.0 mi SSW 8.1 mph - N/A   Partly Cloudy
1:58 AM 63.0 °F 62.8 °F 99% 29.73 in 10.0 mi SSW 5.8 mph - N/A   Mostly Cloudy
2:58 AM 63.7 °F 63.3 °F 99% 29.72 in 10.0 mi SSW 5.8 mph - N/A   Partly Cloudy
3:58 AM 62.8 °F 61.5 °F 96% 29.72 in 10.0 mi SW 5.8 mph - N/A   Clear
4:58 AM 62.1 °F 58.6 °F 89% 29.73 in 10.0 mi SW 6.9 mph - N/A   Overcast
5:58 AM 61.2 °F 57.7 °F 88% 29.73 in 10.0 mi WSW 8.1 mph - N/A   Overcast
6:58 AM 61.2 °F 57.6 °F 88% 29.74 in 10.0 mi WSW 5.8 mph - N/A   Overcast
7:43 AM 62.6 °F 59.0 °F 88% 29.74 in 10.0 mi WSW 5.8 mph - N/A   Mostly Cloudy
7:47 AM 62.6 °F 59.0 °F 88% 29.74 in 10.0 mi WSW 5.8 mph - N/A   Light Drizzle
7:56 AM 62.6 °F 59.0 °F 88% 29.74 in 10.0 mi WSW 4.6 mph - N/A   Overcast
7:58 AM 62.6 °F 59.0 °F 88% 29.74 in 10.0 mi SW 4.6 mph - 0.00 in   Overcast
8:58 AM 62.8 °F 58.8 °F 87% 29.74 in 10.0 mi Variable 6.9 mph - 0.00 in   Overcast
9:05 AM 62.6 °F 59.0 °F 88% 29.74 in 10.0 mi WSW 8.1 mph - N/A Rain Light Rain
9:58 AM 62.8 °F 60.3 °F 91% 29.75 in 8.0 mi WSW 9.2 mph - 0.00 in Rain Rain
10:58 AM 62.4 °F 62.1 °F 99% 29.76 in 9.0 mi WSW 6.9 mph - 0.05 in Rain Rain
11:18 AM 62.6 °F 62.6 °F 100% 29.77 in 10.0 mi West 12.7 mph - N/A Rain Light Rain
11:58 AM 62.8 °F 62.1 °F 97% 29.78 in 10.0 mi West 10.4 mph - 0.03 in Rain Light Rain
12:27 PM 62.6 °F 60.8 °F 94% 29.78 in 10.0 mi West 10.4 mph - N/A   Scattered Clouds
12:37 PM 62.6 °F 60.8 °F 94% 29.78 in 10.0 mi West 10.4 mph - N/A   Light Drizzle
12:42 PM 62.6 °F 60.8 °F 94% 29.78 in 10.0 mi West 8.1 mph - N/A Rain Light Rain
12:58 PM 63.1 °F 61.5 °F 94% 29.78 in 10.0 mi West 10.4 mph - 0.01 in Rain Light Rain
1:18 PM 62.6 °F 62.6 °F 100% 29.78 in 9.0 mi West 10.4 mph - N/A Rain Light Rain
1:28 PM 62.6 °F 62.6 °F 100% 29.79 in 9.0 mi WNW 10.4 mph - N/A Rain Rain
1:58 PM 63.0 °F 62.6 °F 99% 29.78 in 10.0 mi West 12.7 mph 21.9 mph 0.05 in Rain Light Rain
2:08 PM 62.6 °F 62.6 °F 100% 29.78 in 10.0 mi WNW 11.5 mph - N/A Rain Light Rain
2:58 PM 64.0 °F 61.9 °F 93% 29.78 in 9.0 mi West 6.9 mph - 0.01 in Rain Rain
3:08 PM 64.4 °F 62.6 °F 94% 29.78 in 6.0 mi West 9.2 mph - N/A Rain Rain
3:54 PM 62.6 °F 62.6 °F 100% 29.78 in 10.0 mi WNW 4.6 mph - N/A   Scattered Clouds
3:58 PM 62.8 °F 62.4 °F 99% 29.78 in 10.0 mi NW 4.6 mph - 0.03 in   Scattered Clouds
4:18 PM 64.4 °F 62.6 °F 94% 29.78 in 10.0 mi WNW 3.5 mph - N/A Rain Light Rain
4:34 PM 66.2 °F 64.4 °F 94% 29.78 in 10.0 mi WNW 6.9 mph - N/A   Partly Cloudy
4:58 PM 66.4 °F 62.2 °F 86% 29.78 in 10.0 mi NW 10.4 mph - 0.00 in   Partly Cloudy
5:58 PM 70.0 °F 62.1 °F 76% 29.77 in 10.0 mi WNW 13.8 mph 19.6 mph N/A   Partly Cloudy
6:58 PM 69.4 °F 58.8 °F 69% 29.78 in 10.0 mi WNW 17.3 mph 24.2 mph N/A   Mostly Cloudy
7:58 PM 68.0 °F 58.5 °F 71% 29.79 in 10.0 mi NW 13.8 mph 20.7 mph N/A   Overcast
8:58 PM 66.7 °F 57.6 °F 72% 29.80 in 10.0 mi NW 11.5 mph - N/A   Overcast
9:58 PM 65.1 °F 58.5 °F 79% 29.81 in 10.0 mi NW 10.4 mph - N/A   Mostly Cloudy
10:58 PM 63.7 °F 58.3 °F 83% 29.83 in 10.0 mi NW 9.2 mph - N/A   Clear
11:58 PM 61.5 °F 59.0 °F 91% 29.83 in 10.0 mi NW 6.9 mph - N/A   Clear